Powrót do katalogu

FENGYUN 1C DEB

AktywnySSO
NORAD 30012·DEBRIS·🇨🇳 China

Wystrzelony May 10, 1999 z Taiyuan Satellite Launch Center

Loading…

Następne Przeloty (najbliższe 24 godziny)

TLE

ŚwieżeSource: Space-Track

Epoka: Sep 14, 2026, 03:49 UTC

1 30012U 99025MM  26257.15913132  .00000173  00000-0  17589-3 0  9992
2 30012  99.4268 317.6026 0136881 132.6317 253.7618 13.85916994993638

Śledź FENGYUN 1C DEB w czasie rzeczywistym z AllMySat

Download on the App Store